Regional Weather Roundup
Issued by NWS

Home | Current Version | Previous Version | Graphics & Text | Print | Product List | Glossary On
Versions: 1 2 3 4 5 6 7 8 9 10 11 12 13 14 15 16 17 18 19 20 21 22 23 24 25 26 27 28 29 30 31 32 33 34 35 36 37 38 39 40 41 42 43 44 45 46 47 48 49 50
000
ASUS43 KLOT 312206
RWRIL

ILLINOIS REGIONAL WEATHER ROUNDUP
NATIONAL WEATHER SERVICE CHICAGO/ROMEOVILLE IL
400 PM CST SAT JAN 31 2015

NOTE: "FAIR" INDICATES FEW OR NO CLOUDS BELOW 12,000 FEET WITH NO
SIGNIFICANT WEATHER AND/OR OBSTRUCTIONS TO VISIBILITY.

* THESE STATIONS ARE NOT UNDER NWS QUALITY CONTROL. THEY ALSO MAY NOT
  REPORT WEATHER SUCH AS PRECIPITATION OR FOG.

ILZ001-002-007-009-015-016-024-312300-
NORTHWEST ILLINOIS

CITY           SKY/WX    TMP DP  RH WIND       PRES   REMARKS
MOLINE         CLOUDY    36  34  92 SW6       30.16S FOG     WCI  31
STERLING*        N/A    N/A N/A N/A MISG        N/A
SAVANNA*       CLOUDY    37  32  83 CALM      30.15F
$$

ILZ003-004-008-010-011-017-018-312300-
NORTH CENTRAL ILLINOIS

CITY           SKY/WX    TMP DP  RH WIND       PRES   REMARKS
ROCKFORD       CLOUDY    36  26  67 N3        30.17S
FREEPORT*      CLOUDY    34  26  73 CALM      30.16F
ROCHELLE*      CLOUDY    34  30  86 W5        30.16S WCI  30
DE KALB*       CLOUDY    33  28  82 W7        30.16S WCI  27
PERU*          CLOUDY    36  34  92 SW6       30.17F FOG     WCI  31
$$

ILZ005-006-012>014-019>023-312300-
NORTHEAST ILLINOIS

CITY           SKY/WX    TMP DP  RH WIND       PRES   REMARKS
CHICAGO-OHARE  CLOUDY    36  26  67 W6        30.16S WCI  31
CHICAGO-MIDWAY CLOUDY    38  27  64 SW9       30.17S WCI  31
AURORA         CLOUDY    37  29  72 SW7       30.16F WCI  32
LANSING*       CLOUDY    37  29  71 SW9       30.18R WCI  30
JOLIET*        CLOUDY    36  29  74 SW5       30.18S WCI  32
WAUKEGAN       CLOUDY    33  24  69 E3        30.16R
DUPAGE AIRPORT CLOUDY    36  28  73 W7        30.16S WCI  30
KANKAKEE*      CLOUDY    36  32  85 SW6       30.20S WCI  31
WHEELING       CLOUDY    36  24  62 W5        30.19R WCI  32
MORRIS*        CLOUDY    37  32  84 SW9       30.17S WCI  30
ROMEOVILLE*    CLOUDY    36  29  75 W10       30.17S WCI  28
NORTHERLY ISL    N/A     37  25  62 SW5         N/A  WCI  33
$$

LMZ740>746-312300-
SOUTHERN LAKE MICHIGAN

STATION/POSITION SKY/WX   TEMP    WIND        PRES    VSBY  WAVE
                          AIR SEA DIR/SP/G                  HT/PER
                          (F)     (DEG/KT/KT) (MB)    (MI)  (FT/S)
WAUKEGAN HARBOR            33      90/  4/  5   N/A
HARRISON CRIB              35     330/  6/  7   N/A
BURNHAM HARBOR             37     250/  4/  7   N/A
CALUMET HARBOR             38     220/  3/  7   N/A
MICHIGAN CITY              35     220/  2/  3   N/A
$$

ILZ025>027-034>036-040-047-049-050-058-095>099-312300-
WEST-CENTRAL ILLINOIS

CITY           SKY/WX    TMP DP  RH WIND       PRES   REMARKS
QUINCY         LGT RAIN  34  33  96 CALM      30.17F FOG
GALESBURG*     RAIN      35  35  98 S5        30.18R WCI  31
MACOMB*        RAIN      34  34  98 S8        30.21S WCI  28
JACKSONVILLE*  DRIZZLE   37  33  85 CALM      30.20F
PITTSFIELD*    CLOUDY    36  33  88 CALM      30.20S
$$

ILZ028>032-037-038-041>044-048-051>054-059>061-312300-
CENTRAL ILLINOIS

CITY           SKY/WX    TMP DP  RH WIND       PRES   REMARKS
PONTIAC        CLOUDY    39  33  80 SW5       30.19S
BLOOMINGTON    MIX PCPN  36  32  85 SW9       30.20F FOG     WCI  29
DECATUR        MIX PCPN  37  31  78 SW7       30.22F WCI  32
PEORIA         LGT RAIN  36  32  85 SW8       30.20S FOG     WCI  30
LACON*         LGT RAIN  37  35  94 SW3       30.18S
LINCOLN*       LGT RAIN  37  32  85 SW3       30.23S
SPRINGFIELD    LGT RAIN  37  32  82 S6        30.22F WCI  32
TAYLORVILLE    DRIZZLE   34  32  93 S6        30.24S WCI  29
$$

ILZ033-039-045-046-055>057-062-063-312300-
EAST-CENTRAL ILLINOIS

CITY           SKY/WX    TMP DP  RH WIND       PRES   REMARKS
CHAMPAIGN      CLOUDY    36  29  75 SW8       30.21F WCI  30
DANVILLE*      CLOUDY    37  29  75 SW13      30.20S WCI  28
RANTOUL*       CLOUDY    38  32  79 SW8       30.21S WCI  32
MATTOON        LGT RAIN  36  30  79 SE3       30.21F
PARIS*         DRIZZLE   35  31  84 SW7       30.25F WCI  29
$$

ILZ079-100>102-312300-
SOUTHWEST ILLINOIS

CITY           SKY/WX    TMP DP  RH WIND       PRES   REMARKS
ALTON          CLOUDY    43  25  49 S6        30.23
BELLEVILLE     CLOUDY    43  28  55 S6        30.23S
CAHOKIA*       CLOUDY    46  27  47 SE3       30.22F
SPARTA*        CLOUDY    41  27  56 S6        30.26S
$$

ILZ064>066-069>071-074>076-080>082-084>086-088>090-092>094-312300-
SOUTH-CENTRAL ILLINOIS

CITY           SKY/WX    TMP DP  RH WIND       PRES   REMARKS
CARBONDALE     CLOUDY    43  24  47 SW7       30.27R
CAIRO*         CLOUDY    45  26  48 CALM      30.27F
EFFINGHAM*     LGT RAIN  40  25  54 S5        30.26S
MARION         CLOUDY    43  27  52 S9        30.27R
MT. VERNON     CLOUDY    43  27  52 S8        30.26R
CENTRALIA*     CLOUDY    40  28  62 S7        30.24R
SALEM*         LGT RAIN  42  27  54 E6        30.22F
METROPOLIS*    CLOUDY    44  25  46 S3        30.28S
$$

ILZ067-068-072-073-078-083-087-091-312300-
SOUTHEAST ILLINOIS

CITY           SKY/WX    TMP DP  RH WIND       PRES   REMARKS
LAWRENCEVILLE  CLOUDY    40  30  67 S6        30.27F
FLORA*         CLOUDY    39  30  69 S3        30.26F
FAIRFIELD*     CLOUDY    41  29  64 NE9       30.22F
HARRISBURG*    CLOUDY    41  31  66 E5        30.27S
ROBINSON*      CLOUDY    40  28  61 S3        30.27F
CARMI*         CLOUDY    43  31  62 S6        30.25F
$$

ABBREVIATIONS USED IN REMARKS
   TC - TEMPERATURE IN CELSIUS
  WCI - WIND CHILL INDEX
   HX - HEAT INDEX
  VSB - VISIBILITY
$$




USA.gov is the U.S. government's official web portal to all federal, state and local government web resources and services.